• In Deutschland
  • Länderverzeichnis
  • Für 7 Tage
  • Wassertemperatur
  • Satellitenkarten
  • Wetterkarte
  • Widgets
  • user-avatar
    Anmelden

    Stündliche Wetter Abowian

    Heute, 24 April, Dienstag

    Zeit Temperatur Niederschläge Wind Luftdruck Luftfeuchtigkeit
    00:00 +10°C° 0 mm 1 m/S 668 mmHg 48%
    01:00 +10°C° 0 mm 1 m/S 668 mmHg 46%
    02:00 +9°C° 0 mm 1 m/S 668 mmHg 45%
    03:00 +8°C° 0 mm 1 m/S 668 mmHg 43%
    04:00 +9°C° 0 mm 1 m/S 668 mmHg 44%
    05:00 +9°C° 0 mm 1 m/S 669 mmHg 46%
    06:00 +9°C° 0 mm 1 m/S 669 mmHg 47%
    07:00 +11°C° 0 mm 1 m/S 669 mmHg 46%
    08:00 +12°C° 0 mm 2 m/S 670 mmHg 45%
    09:00 +15°C° 0 mm 2 m/S 670 mmHg 46%
    10:00 +16°C° 0 mm 2 m/S 670 mmHg 44%
    11:00 +17°C° 0 mm 2 m/S 671 mmHg 42%
    12:00 +18°C° 0 mm 3 m/S 671 mmHg 40%
    13:00 +18°C° 0 mm 3 m/S 671 mmHg 39%
    14:00 +18°C° 0 mm 3 m/S 671 mmHg 38%
    15:00 +19°C° 0 mm 3 m/S 671 mmHg 37%
    16:00 +18°C° 0 mm 3 m/S 671 mmHg 39%
    17:00 +18°C° 0 mm 3 m/S 671 mmHg 42%
    18:00 +17°C° 0 mm 2 m/S 672 mmHg 44%
    19:00 +16°C° 0 mm 2 m/S 672 mmHg 48%
    20:00 +14°C° 0 mm 2 m/S 672 mmHg 52%
    21:00 +13°C° 0 mm 2 m/S 672 mmHg 56%
    22:00 +12°C° 0 mm 2 m/S 672 mmHg 59%
    23:00 +12°C° 0 mm 2 m/S 673 mmHg 62%

    Morgen, 25 April, Mittwoch

    Zeit Temperatur Niederschläge Wind Luftdruck Luftfeuchtigkeit
    00:00 +10°C° 0 mm 2 m/S 673 mmHg 64%
    01:00 +11°C° 0 mm 1 m/S 673 mmHg 66%
    02:00 +10°C° 0 mm 1 m/S 673 mmHg 67%
    03:00 +10°C° 0 mm 1 m/S 673 mmHg 69%
    04:00 +10°C° 0 mm 1 m/S 673 mmHg 68%
    05:00 +10°C° 0 mm 1 m/S 673 mmHg 67%
    06:00 +11°C° 0 mm 1 m/S 673 mmHg 66%
    07:00 +12°C° 0 mm 1 m/S 673 mmHg 59%
    08:00 +14°C° 0 mm 1 m/S 673 mmHg 51%
    09:00 +16°C° 0 mm 2 m/S 673 mmHg 44%
    10:00 +17°C° 0 mm 2 m/S 673 mmHg 41%
    11:00 +19°C° 0 mm 2 m/S 673 mmHg 39%
    12:00 +20°C° 0 mm 2 m/S 673 mmHg 36%
    13:00 +20°C° 0 mm 2 m/S 673 mmHg 34%
    14:00 +21°C° 0 mm 2 m/S 673 mmHg 33%
    15:00 +21°C° 0 mm 2 m/S 672 mmHg 32%
    16:00 +20°C° 0 mm 2 m/S 672 mmHg 35%
    17:00 +20°C° 0 mm 2 m/S 672 mmHg 39%
    18:00 +19°C° 0 mm 2 m/S 672 mmHg 42%
    19:00 +17°C° 0,1 mm 2 m/S 672 mmHg 46%
    20:00 +16°C° 0,1 mm 1 m/S 672 mmHg 50%
    21:00 +15°C° 0,1 mm 1 m/S 672 mmHg 54%
    22:00 +14°C° 0,1 mm 1 m/S 672 mmHg 57%
    23:00 +14°C° 0,1 mm 1 m/S 672 mmHg 61%

    übermorgen, 26 April, Donnerstag

    Zeit Temperatur Niederschläge Wind Luftdruck Luftfeuchtigkeit
    00:00 +13°C° 0,1 mm 2 m/S 672 mmHg 64%
    01:00 +13°C° 0 mm 1 m/S 672 mmHg 66%
    02:00 +12°C° 0 mm 1 m/S 672 mmHg 67%
    03:00 +12°C° 0 mm 1 m/S 672 mmHg 69%
    04:00 +12°C° 0 mm 1 m/S 672 mmHg 69%
    05:00 +12°C° 0 mm 1 m/S 672 mmHg 68%
    06:00 +12°C° 0 mm 1 m/S 672 mmHg 68%
    07:00 +14°C° 0 mm 1 m/S 673 mmHg 60%
    08:00 +16°C° 0 mm 1 m/S 673 mmHg 51%
    09:00 +19°C° 0 mm 1 m/S 673 mmHg 43%
    10:00 +20°C° 0 mm 1 m/S 673 mmHg 40%
    11:00 +21°C° 0 mm 2 m/S 673 mmHg 38%
    12:00 +23°C° 0 mm 2 m/S 673 mmHg 35%
    13:00 +23°C° 0,1 mm 2 m/S 673 mmHg 34%
    14:00 +23°C° 0,1 mm 2 m/S 672 mmHg 33%
    15:00 +24°C° 0,1 mm 2 m/S 672 mmHg 32%
    16:00 +23°C° 0,2 mm 2 m/S 672 mmHg 35%
    17:00 +22°C° 0,2 mm 1 m/S 672 mmHg 38%
    18:00 +21°C° 0,2 mm 1 m/S 672 mmHg 41%
    19:00 +20°C° 0,1 mm 1 m/S 672 mmHg 45%
    20:00 +17°C° 0,1 mm 2 m/S 672 mmHg 50%
    21:00 +16°C° 0,1 mm 2 m/S 673 mmHg 54%
    22:00 +15°C° 0 mm 2 m/S 673 mmHg 58%
    23:00 +15°C° 0 mm 2 m/S 673 mmHg 62%

    27 April, Freitag

    Zeit Temperatur Niederschläge Wind Luftdruck Luftfeuchtigkeit
    00:00 +14°C° 0 mm 2 m/S 672 mmHg 66%
    01:00 +14°C° 0 mm 2 m/S 672 mmHg 68%
    02:00 +14°C° 0 mm 2 m/S 672 mmHg 70%
    03:00 +13°C° 0 mm 2 m/S 672 mmHg 72%
    04:00 +13°C° 0 mm 2 m/S 672 mmHg 72%
    05:00 +13°C° 0 mm 2 m/S 672 mmHg 71%
    06:00 +13°C° 0 mm 1 m/S 672 mmHg 71%
    07:00 +15°C° 0 mm 1 m/S 672 mmHg 62%
    08:00 +18°C° 0 mm 1 m/S 673 mmHg 53%
    09:00 +19°C° 0 mm 2 m/S 673 mmHg 44%
    10:00 +20°C° 0 mm 2 m/S 673 mmHg 41%
    11:00 +21°C° 0 mm 2 m/S 672 mmHg 39%
    12:00 +23°C° 0 mm 2 m/S 672 mmHg 36%
    13:00 +23°C° 0,2 mm 2 m/S 672 mmHg 38%
    14:00 +23°C° 0,2 mm 2 m/S 671 mmHg 39%
    15:00 +23°C° 0,2 mm 2 m/S 671 mmHg 40%
    16:00 +21°C° 0,7 mm 2 m/S 671 mmHg 47%
    17:00 +20°C° 0,7 mm 2 m/S 671 mmHg 53%
    18:00 +19°C° 0,7 mm 2 m/S 671 mmHg 60%
    19:00 +18°C° 0,8 mm 2 m/S 671 mmHg 63%
    20:00 +18°C° 0,8 mm 1 m/S 671 mmHg 67%
    21:00 +18°C° 0,8 mm 1 m/S 671 mmHg 71%
    22:00 +16°C° 0,4 mm 1 m/S 671 mmHg 73%
    23:00 +16°C° 0,4 mm 1 m/S 671 mmHg 75%

    28 April, Samstag

    Zeit Temperatur Niederschläge Wind Luftdruck Luftfeuchtigkeit
    00:00 +15°C° 0,4 mm 2 m/S 671 mmHg 76%
    01:00 +15°C° 0,1 mm 1 m/S 670 mmHg 76%
    02:00 +15°C° 0,1 mm 1 m/S 670 mmHg 77%
    03:00 +14°C° 0,1 mm 1 m/S 670 mmHg 77%
    04:00 +14°C° 0,1 mm 1 m/S 670 mmHg 77%
    05:00 +14°C° 0,1 mm 1 m/S 670 mmHg 77%
    06:00 +14°C° 0,1 mm 2 m/S 670 mmHg 77%
    07:00 +16°C° 0,2 mm 1 m/S 670 mmHg 71%
    08:00 +18°C° 0,2 mm 1 m/S 670 mmHg 65%
    09:00 +19°C° 0,2 mm 1 m/S 670 mmHg 59%
    10:00 +19°C° 0,4 mm 2 m/S 670 mmHg 57%
    11:00 +19°C° 0,4 mm 2 m/S 670 mmHg 56%
    12:00 +20°C° 0,4 mm 2 m/S 670 mmHg 54%
    13:00 +20°C° 0,6 mm 2 m/S 670 mmHg 54%
    14:00 +20°C° 0,6 mm 3 m/S 670 mmHg 55%
    15:00 +20°C° 0,6 mm 3 m/S 670 mmHg 55%
    16:00 +20°C° 0,7 mm 3 m/S 670 mmHg 57%
    17:00 +19°C° 0,7 mm 3 m/S 670 mmHg 60%
    18:00 +18°C° 0,7 mm 3 m/S 670 mmHg 62%
    19:00 +17°C° 0,4 mm 2 m/S 671 mmHg 65%
    20:00 +17°C° 0,4 mm 2 m/S 671 mmHg 67%
    21:00 +16°C° 0,4 mm 1 m/S 672 mmHg 70%
    22:00 +15°C° 0,3 mm 1 m/S 672 mmHg 72%
    23:00 +15°C° 0,3 mm 1 m/S 672 mmHg 73%

    29 April, Sonntag

    Zeit Temperatur Niederschläge Wind Luftdruck Luftfeuchtigkeit
    00:00 +14°C° 0,3 mm 1 m/S 672 mmHg 75%
    01:00 +14°C° 0,3 mm 1 m/S 672 mmHg 76%
    02:00 +14°C° 0,3 mm 1 m/S 671 mmHg 77%
    03:00 +13°C° 0,3 mm 1 m/S 671 mmHg 77%
    04:00 +13°C° 0,3 mm 1 m/S 672 mmHg 77%
    05:00 +14°C° 0,3 mm 1 m/S 672 mmHg 77%
    06:00 +14°C° 0,3 mm 1 m/S 672 mmHg 77%
    07:00 +15°C° 0,4 mm 1 m/S 672 mmHg 73%
    08:00 +16°C° 0,4 mm 1 m/S 673 mmHg 68%
    09:00 +18°C° 0,4 mm 1 m/S 673 mmHg 63%
    10:00 +19°C° 0,3 mm 1 m/S 673 mmHg 60%
    11:00 +19°C° 0,3 mm 2 m/S 673 mmHg 57%
    12:00 +20°C° 0,3 mm 2 m/S 672 mmHg 54%
    13:00 +20°C° 0,3 mm 2 m/S 672 mmHg 53%
    14:00 +20°C° 0,3 mm 2 m/S 672 mmHg 53%
    15:00 +21°C° 0,3 mm 2 m/S 672 mmHg 52%
    16:00 +20°C° 0,4 mm 2 m/S 671 mmHg 55%
    17:00 +20°C° 0,4 mm 2 m/S 671 mmHg 57%
    18:00 +19°C° 0,4 mm 2 m/S 671 mmHg 60%
    19:00 +18°C° 0,7 mm 2 m/S 672 mmHg 64%
    20:00 +17°C° 0,7 mm 2 m/S 672 mmHg 68%
    21:00 +16°C° 0,7 mm 1 m/S 672 mmHg 72%
    22:00 +16°C° 0,7 mm 1 m/S 672 mmHg 74%
    23:00 +15°C° 0,7 mm 1 m/S 672 mmHg 76%
    Mehr zeigen